sat.trackr.live / text

‹ back to catalog

QIANFAN-102

NORAD 66044 · 2025-233M

PAYLOAD ACTIVE UNKNOWN

§ Identity

Operator
Country
PRC
Launch date
2025-10-17
Launch site
TAISC
Launch vehicle
Mass (kg)
RCS (m²)

External: N2YO · Heavens-Above · Gunter

§ Orbital elements

Epoch: 2026-05-25T03:28:44.707296Z

Period
106.59 min
Inclination
89.0024°
Eccentricity
0.0002049
Mean motion
13.51006290 rev/d
Perigee alt
1,067.0 km
Apogee alt
1,070.1 km
Semi-major
7,446.7 km
B*
1.7798e-4
RAAN
45.4284°
Arg perigee
73.3565°
Mean anomaly
286.7811°
Rev number
3,012

§ Raw data

QIANFAN-1021 66044U 25233M   26145.14496189  .00000127  00000+0  17798-3 0  99992 66044  89.0024  45.4284 0002049  73.3565 286.7811 13.51006290 30122

JSON: /api/v1/satellites/66044 · /tle

For live sub-satellite position, see the globe view (requires WebGL).

§ Visibility from observer

Set your observer location to see the next 7 days of passes ≥ 10°. The values pass through the URL so the page stays shareable.

No JS? Fill the form by hand. The geolocation button needs JavaScript.